Weather in Minino

Russia / Krasnoyarsk Krai     56°04′34″N   92°41′49″E
temp.,
°C
wind,
m/s
gust,
m/s
humid.,
%
clouds,
%
prec.,
mm/h
press.,
hPa
HPBL,
m
22 may, sun
sun2201:00+12wsw115064 0.0 101118
04:00+11ssw115516 0.0 101113
07:00+14ne115190 0.0 1011179
10:00+20nnw013913 0.0 1009647
13:00+24nne14356 0.0 10071450
16:00+25n4533100 0.0 10062229
19:00+21ne574532 0.0 1007704
22:00+15ne2356100 0.0 100964
23 may, mon
mon2301:00+13ene225996 0.0 101025
04:00+11e1161100 0.0 101114
07:00+13sw015585 0.0 101393
10:00+19e233893 0.0 1014685
13:00+23e0235100 0.0 10151459
16:00+15w61180100 0.5 1018558
19:00+12wnw61175100 0.5 1023727
22:00+10wnw3789100 2.2 1025672
24 may, tue
tue2401:00+9s1191100 5.6 102670
04:00+8s22940 0.0 102621
07:00+11s12803 0.0 1026237
10:00+16ese23549 0.0 1024952
13:00+19ene33405 0.0 10221519
16:00+21ne3338100 0.0 10201723
19:00+20e24491 0.0 1019604
22:00+14ne11734 0.0 102011
25 may, wed
wed2501:00+12ene1179100 0.0 101911
04:00+11nne1181100 0.0 101911
07:00+14ne1271100 0.0 1018153
10:00+19ne3454100 0.0 1017715
13:00+22ne444440 0.0 10161211
16:00+24nne33400 0.0 10141394
19:00+22n35420 0.0 1014346
22:00+16wnw11540 0.0 101511
26 may, thu
thu2601:00+14wsw11630 0.0 101411
04:00+13w116413 0.0 101411
07:00+16nw23596 0.0 1015261
10:00+20n455791 0.1 10141519
13:00+22nnw56375 0.2 10142385
16:00+22n56315 0.0 10142378
19:00+19n4641100 0.0 1015947
22:00+13nnw225812 0.0 101629